This is the latest recevied weather packets stored in our database for station/object KV9E. If no packets are shown the sender has not sent any weather packets the latest 10 day(s).
| Time | Temp. | Humidity | Pressure | Rain* | Wind** | Luminosity | Snow |
|---|---|---|---|---|---|---|---|
| 1788014040 | 23.33° C | 83% | 1021.5 hPa | 0 mm | - | 43 W/m² | - |
| 1788013739 | 23.33° C | 82% | 1021.4 hPa | 0 mm | - | 70 W/m² | - |
| 1788013439 | 23.33° C | 83% | 1021.3 hPa | 0 mm | - | 41 W/m² | - |
| 1788013138 | 23.33° C | 84% | 1021.5 hPa | 0 mm | - | 50 W/m² | - |
| 1788012837 | 23.33° C | 84% | 1021.3 hPa | 0 mm | - | 68 W/m² | - |
| 1788012532 | 23.33° C | 82% | 1021.3 hPa | 0 mm | - | 106 W/m² | - |
| 1788012228 | 22.78° C | 82% | 1021.2 hPa | 0 mm | - | 140 W/m² | - |
| 1788011926 | 23.33° C | 81% | 1021 hPa | 0 mm | - | 42 W/m² | - |
| 1788011625 | 23.89° C | 81% | 1020.9 hPa | 0 mm | - | 51 W/m² | - |
| 1788011321 | 23.33° C | 78% | 1020.7 hPa | 0 mm | - | 152 W/m² | - |
| 1788011019 | 23.33° C | 81% | 1020.9 hPa | 0 mm | - | 51 W/m² | - |
| 1788010716 | 23.33° C | 82% | 1020.5 hPa | 0 mm | - | 60 W/m² | - |
| 1788010413 | 22.78° C | 83% | 1020.7 hPa | 0 mm | - | 34 W/m² | - |
| 1788010108 | 22.78° C | 83% | 1020.5 hPa | 0 mm | - | 32 W/m² | - |
| 1788009803 | 22.22° C | 82% | 1020.6 hPa | 0 mm | - | 33 W/m² | - |
| 1788009502 | 21.67° C | 85% | 1020.6 hPa | 0 mm | - | 31 W/m² | - |
| 1788009197 | 21.67° C | 84% | 1020.4 hPa | 0 mm | - | 31 W/m² | - |
| 1788008891 | 21.67° C | 85% | 1020.6 hPa | 0 mm | - | 31 W/m² | - |
| 1788008600 | 21.11° C | 86% | 1020.3 hPa | 0 mm | - | 30 W/m² | - |
| 1788008284 | 20° C | 90% | 1020.5 hPa | 0 mm | - | 30 W/m² | - |
| 1788007982 | 19.44° C | 92% | 1020.5 hPa | 0 mm | - | 29 W/m² | - |
| 1788007681 | 19.44° C | 91% | 1020.5 hPa | 0 mm | - | 29 W/m² | - |
| 1788007377 | 19.44° C | 92% | 1020.5 hPa | 0 mm | - | 29 W/m² | - |
| 1788007071 | 19.44° C | 91% | 1020.4 hPa | 0 mm | - | 28 W/m² | - |
| 1788006770 | 19.44° C | 91% | 1020.6 hPa | 0 mm | - | 26 W/m² | - |
* Rain latest hour (hover to see other rain measurements)
** Current wind speed in m/s (hover to see current wind gust speed)